DMSP 5D-2 F13 DEB, 42289

Orbit data source: Space-Track

DMSP 5D-2 F13 DEB, 42289 is space debris in SSO originally from a launch on Fri, 24 Mar 1995 UTC launched from the Air Force Western Test Range (AFWTR). Debris objects in space refer to the collection of defunct objects orbiting the Earth. Examples of debris include non-operational satellites, rocket bodies, and fragments generated from explosions, collisions, or faulty payload assembly.

Loading next visibility...
Identifier
42289, 1995-015HF
Orbit
SSO
Country
Flag of USUS
Related business
Manufacturer
Unknown
Mission
Spacecraft
Bus & Motor
Unknown
Mass
Unknown
Launch date (UTC)
1995-03-24 (31 years ago)
Launch vehicle
Unknown
Launch site
Air Force Western Test Range (AFWTR)
Object type
Payload
Rocket body
Debris
Shape & HBR
Unknown shape, 0.1 m
Radar Cross Section
Small (<0.1 m²)

Expand to show TLE details & history
Last TLE update: 18 hours ago

TLE from 18 hours ago
0 DMSP 5D-2 F13 DEB
1 42289U 95015HF  26132.90129300  .00182409  00000-0  70852-2 0  9991
2 42289  98.8629 188.6067 0006860 249.9153 110.1342 15.25242019570429
Epoch: 2026-05-12T21:37Z
TLE epoch observation values (Epoch: 2026-05-12T21:37:51.715Z)
Latitude
-0.00005°
Longitude
-6.52779°
Altitude
494.735 km
Speed
7.616 km/s
True Right ascension
12h 34m 25s
True Declination
0° 00' 00"
Sunlit
Object was in full shadow at epoch
Visualization orbit readout
Latitude
Unknown
Longitude
Unknown
Altitude
Unknown
Speed
Unknown
Apparent Right ascension
Unknown
Apparent Declination
Unknown
Sunlit
N/A
Visualization observer readout
Local Sidereal Time
00:16:35
Azimuth
Unknown
Elevation
Unknown
Doppler factor
Unknown
Orbital elements
Apogee altitude
491.796 km
Perigee altitude
482.377 km
Semi-major axis
6,865.223 km
Eccentricity
0.00069
Inclination
98.8629°
RAAN
188.6067°
Arg. of periapsis
249.9153°
True anomaly
110.20798°
Mean anomaly
110.1342°
Eccentric anomaly
110.17109°
Mean motion
3.81559 °/min
Orbital period
94.35 mins
BSTAR
0.0070852
Loading maneuver chart data...
Computing Atmospheric mass density...

Documentation

Showing up to 5 results
|